TimeEDT,TemperatureF,Dew PointF,Humidity,Sea Level PressureIn,VisibilityMPH,Wind Direction,Wind SpeedMPH,Gust SpeedMPH,PrecipitationIn,Events,Conditions,WindDirDegrees,DateUTC
12:49 AM,51.8,51.8,100,-9999,0.0,SW,25.3,-,N/A,Fog,Fog,220,2013-06-29 04:49:00
1:49 AM,51.8,51.8,100,-9999,0.0,SW,29.9,36.8,N/A,Fog,Fog,220,2013-06-29 05:49:00
2:50 AM,51.8,51.8,100,-9999,0.0,SW,24.2,33.4,N/A,Fog-Rain,Light Rain Showers,230,2013-06-29 06:50:00
3:50 AM,51.8,51.8,100,-9999,0.0,SW,32.2,39.1,N/A,Fog,Fog,220,2013-06-29 07:50:00
4:50 AM,50.0,50.0,100,-9999,0.1,SW,33.4,41.4,N/A,Fog,Fog,230,2013-06-29 08:50:00
5:53 AM,50.0,50.0,100,-9999,0.1,SW,27.6,-,N/A,Fog,Fog,220,2013-06-29 09:53:00
6:51 AM,50.0,50.0,100,-9999,0.0,SW,28.8,35.7,N/A,Fog,Fog,220,2013-06-29 10:51:00
7:50 AM,50.0,50.0,100,-9999,0.0,SW,19.6,-,N/A,Fog,Fog,230,2013-06-29 11:50:00
8:49 AM,51.8,51.8,100,-9999,0.0,SW,23.0,28.8,N/A,Fog,Fog,230,2013-06-29 12:49:00
9:56 AM,51.8,51.8,100,-9999,0.1,SW,23.0,-,N/A,Fog,Fog,230,2013-06-29 13:56:00
10:51 AM,50.0,50.0,100,-9999,0.1,SW,25.3,34.5,N/A,Fog,Fog,220,2013-06-29 14:51:00
11:49 AM,50.0,50.0,100,-9999,0.0,SW,27.6,33.4,N/A,Fog,Fog,220,2013-06-29 15:49:00
12:52 PM,51.8,51.8,100,-9999,0.1,SW,31.1,36.8,N/A,Fog,Fog,220,2013-06-29 16:52:00
1:50 PM,51.8,51.8,100,-9999,0.1,SW,27.6,34.5,N/A,Fog,Fog,220,2013-06-29 17:50:00
2:51 PM,51.8,51.8,100,-9999,0.1,SSW,27.6,34.5,N/A,Fog,Fog,210,2013-06-29 18:51:00
3:51 PM,51.8,51.8,100,-9999,0.0,WSW,27.6,34.5,N/A,Fog-Rain-Thunderstorm,Light Thunderstorms and Rain,240,2013-06-29 19:51:00
4:51 PM,51.8,51.8,100,-9999,0.1,WSW,43.7,48.3,N/A,Fog,Fog,250,2013-06-29 20:51:00
5:48 PM,51.8,51.8,100,-9999,0.0,WSW,40.3,51.8,N/A,Fog,Fog,250,2013-06-29 21:48:00
6:48 PM,51.8,51.8,100,-9999,0.0,WSW,42.6,49.5,N/A,Fog,Fog,250,2013-06-29 22:48:00
7:48 PM,51.8,51.8,100,-9999,0.0,WSW,42.6,-,N/A,Fog-Rain,Rain Showers,250,2013-06-29 23:48:00
8:48 PM,51.8,51.8,100,-9999,0.0,West,41.4,-,N/A,Fog,Fog,260,2013-06-30 00:48:00
9:48 PM,50.0,50.0,100,-9999,0.0,West,44.9,-,N/A,Fog,Fog,270,2013-06-30 01:48:00
10:48 PM,50.0,50.0,100,-9999,0.0,West,42.6,52.9,N/A,Fog,Fog,270,2013-06-30 02:48:00
11:52 PM,50.0,50.0,100,-9999,0.0,West,38.0,-,N/A,Fog,Fog,260,2013-06-30 03:52:00